Meteo Giornale » Osservazioni meteo Stati Uniti (USA) » New York City Central Park

ore: 18:51 - Osservazioni Meteo New York City Central Park
Lat. 40° 47' N Lon. 73° 58' W Alt. 47 metri s.l.m.

sereno America/New_York

24 °C

Sereno

Temp. 24 Ore

14 °C

26 °C

Ovest

7.4 Km/h

Dew point 10 °C

Umidità 41 %

Visibilità  10 Km

Il sole sorge alle ore 06:43

Il sole tramonta alle ore 18:52

Data e Ora Cielo e Fenomeni T °C DP °C Um. % Pres. hPa Vis. km Vento km/h
Oggi h: 18:51 sereno Sereno 24 10 41 1011 10 O 7.4
Oggi h: 17:51 sereno Sereno 25 11 41 1011 10 N 5.5
Oggi h: 16:51 nuvoloso Nuvoloso 26 11 39 1011 10 N 7.4
Oggi h: 15:51 poco_nuvoloso Poco Nuvoloso 26 11 39 1010 10 O 9.3
Oggi h: 14:51 sereno Sereno 26 11 39 1010 10 NO 22.2
Oggi h: 13:51 sereno Sereno 26 11 39 1011 10 O/NO 16.7
Oggi h: 12:51 sereno Sereno 24 11 43 1011 10 O/NO 22.2
Oggi h: 11:51 sereno Sereno 23 10 43 1012 10 O/NO 13
Oggi h: 10:51 sereno Sereno 21 9 46 1012 10 O 16.7
Oggi h: 09:51 sereno Sereno 19 8 48 1012 10 O 13
Oggi h: 08:51 sereno Sereno 17 8 55 1013 10 N 5.5
Oggi h: 07:51 sereno Sereno 16 8 58 1013 10 O 9.3
Oggi h: 06:51 sereno Sereno 14 7 62 1013 10 N 5.5
Oggi h: 05:51 sereno Sereno 14 7 62 1012 10 N 0
Oggi h: 04:51 sereno Sereno 14 7 62 1012 10 N 7.4
Oggi h: 03:51 sereno Sereno 16 5 47 1012 10 N 0
Oggi h: 02:51 sereno Sereno 16 4 44 1012 10 N 9.3
Oggi h: 01:51 sereno Sereno 15 6 54 1012 10 N 5.5
Oggi h: 00:51 sereno Sereno 16 4 44 1012 10 N 7.4
Ieri h: 23:51 sereno Sereno 17 4 41 1012 10 O 7.4
Ieri h: 22:51 sereno Sereno 17 3 39 1012 10 O/NO 7.4
Ieri h: 21:51 sereno Sereno 18 2 34 1013 10 N 7.4
Ieri h: 20:51 sereno Sereno 19 3 34 1013 10 N 0